Mount Shasta, CA

1:11 PM PDT on March 24, 2017 (GMT -0700)
Mount Shasta

Weather History for KMHS - October, 2014

Change the Weather History Date:

Sunday, October 19, 2014

  Actual Average Record
Temperature  
Mean Temperature 55 °F 50 °F  
Max Temperature 67 °F 65 °F 80 °F (1974)
Min Temperature 43 °F 36 °F 23 °F (1912)
Degree Days  
Heating Degree Days 10 15  
Month to date heating degree days 132 220  
Since 1 July heating degree days 212 457  
Cooling Degree Days 0 0  
Month to date cooling degree days 0 0  
Year to date cooling degree days 547 287  
Growing Degree Days 4 (Base 50)    
Moisture  
Dew Point 47 °F    
Average Humidity 73    
Maximum Humidity 96    
Minimum Humidity 52    
Precipitation  
Precipitation 0.00 in 0.09 in 3.53 in (2004)
Month to date precipitation 1.34 1.00  
Year to date precipitation 16.18 29.00  
Sea Level Pressure  
Sea Level Pressure 29.96 in    
Wind  
Wind Speed 1 mph (ESE)    
Max Wind Speed 9 mph    
Max Gust Speed 16 mph    
Visibility 10 miles    
Events      
T = Trace of Precipitation, MM = Missing Value Source: NWS Daily Summary

Daily Weather History Graph

Daily Weather History Graph

Search for Another Location

Airport or City:

Trip Planner

Search our weather history database for the weather conditions in past years. The results will help you decide how hot, cold, wet, or windy it might be!

Date:

Astronomy

Oct. 19, 2014 Rise Set
Actual Time 7:25 AM PDT 6:22 PM PDT
Civil Twilight 6:57 AM PDT 6:50 PM PDT
Nautical Twilight 6:25 AM PDT 7:22 PM PDT
Astronomical Twilight 5:53 AM PDT 7:54 PM PDT
Moon 3:21 AM PDT (10/19) 4:18 PM PDT (10/19)
Length of Visible Light 11h 52m
Length of Day
10h 56m
Waning Crescent, 16% of the Moon is Illuminated
Oct 19
Waning Crescent
Oct 23
New
Oct 30
First Quarter
Nov 6
Full
Nov 14
Last Quarter

Hourly Weather History & Observations

Time (PDT) Temp. Dew Point Humidity Pressure Visibility Wind Dir Wind Speed Gust Speed Precip Events Conditions
12:56 AM 43.0 °F 41.0 °F 93% 29.98 in 10.0 mi Calm Calm - N/A   Clear
1:56 AM 44.1 °F 41.0 °F 89% 29.99 in 10.0 mi Calm Calm - N/A   Clear
2:56 AM 55.0 °F 46.0 °F 72% 29.94 in 10.0 mi Variable 3.5 mph - N/A   Clear
3:56 AM 48.0 °F 44.1 °F 86% 29.96 in 10.0 mi Calm Calm - N/A   Clear
4:56 AM 45.0 °F 43.0 °F 93% 29.96 in 10.0 mi Calm Calm - N/A   Clear
5:56 AM 46.0 °F 43.0 °F 89% 29.96 in 10.0 mi Calm Calm - N/A   Clear
6:56 AM 45.0 °F 43.0 °F 93% 29.99 in 10.0 mi Calm Calm - N/A   Clear
7:56 AM 46.9 °F 44.1 °F 90% 29.99 in 10.0 mi Calm Calm - N/A   Scattered Clouds
8:12 AM 50.0 °F 46.9 °F 89% 29.97 in 10.0 mi Calm Calm - N/A   Mostly Cloudy
8:56 AM 55.0 °F 48.0 °F 77% 30.01 in 10.0 mi Calm Calm - N/A   Overcast
9:25 AM 57.0 °F 48.9 °F 74% 29.97 in 10.0 mi Calm Calm - N/A   Mostly Cloudy
9:47 AM 55.9 °F 48.9 °F 77% 29.98 in 10.0 mi Calm Calm - N/A   Overcast
9:56 AM 57.0 °F 48.9 °F 74% 30.01 in 10.0 mi Variable 3.5 mph - N/A   Overcast
10:56 AM 57.9 °F 48.9 °F 72% 30.01 in 10.0 mi Calm Calm - N/A   Overcast
11:06 AM 57.9 °F 48.9 °F 72% 29.98 in 10.0 mi Calm Calm - N/A   Overcast
11:28 AM 57.9 °F 48.0 °F 70% 29.98 in 10.0 mi Variable 3.5 mph - N/A   Overcast
11:56 AM 61.0 °F 48.9 °F 64% 30.00 in 10.0 mi Variable 3.5 mph - N/A   Mostly Cloudy
12:14 PM 60.1 °F 50.0 °F 69% 29.98 in 10.0 mi Calm Calm - N/A   Mostly Cloudy
12:32 PM 60.1 °F 48.9 °F 67% 29.98 in 10.0 mi Calm Calm - N/A   Overcast
12:56 PM 61.0 °F 50.0 °F 67% 29.99 in 10.0 mi Variable 4.6 mph - N/A   Overcast
1:27 PM 61.0 °F 50.0 °F 67% 29.96 in 10.0 mi SE 3.5 mph - N/A   Overcast
1:41 PM 64.0 °F 50.0 °F 60% 29.95 in 10.0 mi Calm Calm - N/A   Overcast
1:56 PM 64.0 °F 51.1 °F 63% 29.97 in 10.0 mi Calm Calm - N/A   Mostly Cloudy
2:56 PM 64.0 °F 50.0 °F 60% 29.92 in 10.0 mi Calm Calm - N/A   Mostly Cloudy
3:56 PM 66.9 °F 48.9 °F 52% 29.93 in 10.0 mi North - - N/A   Scattered Clouds
4:56 PM 63.0 °F 48.0 °F 58% 29.92 in 10.0 mi Calm Calm - N/A   Clear
5:56 PM 59.0 °F 48.0 °F 67% 29.92 in 10.0 mi Calm Calm - N/A   Clear
6:56 PM 57.0 °F 46.9 °F 69% 29.93 in 10.0 mi Calm Calm - N/A   Clear
7:56 PM 57.0 °F 46.9 °F 69% 29.94 in 10.0 mi Variable 3.5 mph - N/A   Clear
8:56 PM 55.0 °F 46.0 °F 72% 29.92 in 10.0 mi Calm Calm - N/A   Partly Cloudy
9:56 PM 57.0 °F 46.0 °F 67% 29.91 in 10.0 mi Calm Calm - N/A   Overcast
10:56 PM 59.0 °F 48.0 °F 67% 29.90 in 10.0 mi Calm Calm - N/A   Overcast
11:33 PM 59.0 °F 48.0 °F 67% 29.90 in 10.0 mi Calm Calm - N/A   Overcast
11:56 PM 59.0 °F 48.0 °F 67% 29.89 in 10.0 mi East 4.6 mph - N/A   Overcast